Location: McLaughlin
(0.0000°N, 0.0000°E)
Time: 20:52:38
(UTC+00:00)

Hubble Space Telescope - Pass Details

Date: 22 June 2019
Orbit: 536 x 540 km, 28.5° (Epoch: 22 July)

Event Time Altitude Azimuth Distance (km) Brightness Sun altitude
Rises 04:45:44 0° 328° (NNW) 2,659 4.2 -17.4°
Reaches altitude 10° 04:48:49 10° 352° (N) 1,771 3.6 -16.7°
Maximum altitude 04:51:12 15° 28° (NNE) 1,483 3.7 -16.2°
Drops below altitude 10° 04:53:35 10° 64° (ENE) 1,774 4.8 -15.6°
Sets 04:56:40 0° 88° (E) 2,666 5.7 -14.9°
